SFR690 FACT-FAOR

Flight info

Callsign SFR690
Flight time N/A
Altitude 37000
Route TETAN1A TETAN UZ2 NIBEX NIBEX1D
Aircraft B738/M-SDE2E3FGHIRWXY/LB1

Departure

Time N/A
Airport Cape Town International Airport (FACT)

Arrival

Time 2026-05-06 14:35
Airport O.R. Tambo International Airport (FAOR)
Time Latitude Longitude Altitude Speed Heading
2026-05-06 13:36 -30.68143 23.30279 36812 ft 497 kts 45°
2026-05-06 13:36 -30.63362 23.36080 36829 ft 497 kts 45°
2026-05-06 13:37 -30.58594 23.41856 36832 ft 497 kts 45°
2026-05-06 13:37 -30.53799 23.47656 36844 ft 498 kts 45°
2026-05-06 13:38 -30.49001 23.53451 36845 ft 498 kts 45°
2026-05-06 13:38 -30.44193 23.59248 36839 ft 498 kts 45°
2026-05-06 13:39 -30.39384 23.65040 36843 ft 498 kts 45°
2026-05-06 13:39 -30.34602 23.70789 36849 ft 498 kts 44°
2026-05-06 13:40 -30.29774 23.76585 36872 ft 499 kts 44°
2026-05-06 13:40 -30.24966 23.82347 36869 ft 501 kts 44°
2026-05-06 13:41 -30.20116 23.88151 36886 ft 502 kts 44°
2026-05-06 13:41 -30.15248 23.93969 36884 ft 504 kts 44°
2026-05-06 13:42 -30.10359 23.99803 36888 ft 505 kts 44°
2026-05-06 13:42 -30.05483 24.05612 36902 ft 506 kts 44°
2026-05-06 13:43 -30.00570 24.11457 36888 ft 506 kts 43°
2026-05-06 13:43 -29.95655 24.17295 36891 ft 505 kts 43°
2026-05-06 13:44 -29.90778 24.23081 36904 ft 502 kts 43°
2026-05-06 13:44 -29.85946 24.28803 36909 ft 500 kts 43°
2026-05-06 13:45 -29.81090 24.34545 36918 ft 500 kts 43°
2026-05-06 13:45 -29.73818 24.43128 36924 ft 497 kts 43°
2026-05-06 13:46 -29.68988 24.48819 36881 ft 496 kts 42°
2026-05-06 13:46 -29.64197 24.54456 36926 ft 495 kts 42°
2026-05-06 13:47 -29.59374 24.60120 36940 ft 497 kts 42°
2026-05-06 13:47 -29.54525 24.65806 36945 ft 499 kts 42°
2026-05-06 13:48 -29.49645 24.71522 36939 ft 502 kts 42°
2026-05-06 13:48 -29.44773 24.77220 36941 ft 504 kts 42°
2026-05-06 13:49 -29.39849 24.82972 36946 ft 505 kts 42°
2026-05-06 13:49 -29.34904 24.88738 36914 ft 506 kts 41°
2026-05-06 13:50 -29.29962 24.94494 36949 ft 507 kts 41°
2026-05-06 13:50 -29.25010 25.00252 36958 ft 507 kts 41°
2026-05-06 13:51 -29.20077 25.05980 36957 ft 508 kts 41°
2026-05-06 13:51 -29.15108 25.11741 36951 ft 507 kts 41°
2026-05-06 13:52 -29.10152 25.17478 36954 ft 506 kts 41°
2026-05-06 13:52 -29.05203 25.23200 36953 ft 505 kts 41°
2026-05-06 13:53 -29.00289 25.28872 36913 ft 504 kts 40°
2026-05-06 13:53 -28.95374 25.34539 36963 ft 501 kts 40°
2026-05-06 13:54 -28.90463 25.40190 36957 ft 501 kts 40°
2026-05-06 13:54 -28.85549 25.45838 36968 ft 500 kts 40°
2026-05-06 13:55 -28.80638 25.51474 36960 ft 500 kts 40°
2026-05-06 13:55 -28.75757 25.57067 36965 ft 500 kts 40°
2026-05-06 13:56 -28.70842 25.62692 36963 ft 501 kts 40°
2026-05-06 13:56 -28.65915 25.68325 36966 ft 502 kts 39°
2026-05-06 13:57 -28.60977 25.73960 36959 ft 502 kts 39°
2026-05-06 13:57 -28.56038 25.79589 36968 ft 502 kts 39°
2026-05-06 13:58 -28.51094 25.85217 36964 ft 502 kts 39°
2026-05-06 13:58 -28.46159 25.90827 36968 ft 501 kts 39°
2026-05-06 13:59 -28.41254 25.96396 36956 ft 501 kts 38°
2026-05-06 13:59 -28.36326 26.01983 36967 ft 500 kts 38°
2026-05-06 14:00 -28.31403 26.07550 36948 ft 499 kts 38°
2026-05-06 14:00 -28.26497 26.13092 36977 ft 498 kts 38°
2026-05-06 14:01 -28.21588 26.18631 36981 ft 497 kts 38°
2026-05-06 14:01 -28.16675 26.24168 36987 ft 498 kts 38°
2026-05-06 14:02 -28.11767 26.29692 36981 ft 497 kts 38°
2026-05-06 14:02 -28.06851 26.35218 36982 ft 497 kts 38°
2026-05-06 14:03 -28.01968 26.40701 36984 ft 497 kts 38°
2026-05-06 14:03 -27.97056 26.46202 36943 ft 497 kts 38°
2026-05-06 14:04 -27.92147 26.51690 36968 ft 496 kts 37°
2026-05-06 14:04 -27.87239 26.57170 36948 ft 495 kts 37°
2026-05-06 14:05 -27.82351 26.62625 36969 ft 493 kts 37°
2026-05-06 14:05 -27.77488 26.68045 36969 ft 490 kts 37°
2026-05-06 14:06 -27.72640 26.73439 36971 ft 487 kts 37°
2026-05-06 14:06 -27.67818 26.78797 36970 ft 485 kts 37°
2026-05-06 14:07 -27.63019 26.84122 36954 ft 483 kts 37°
2026-05-06 14:07 -27.58236 26.89423 36971 ft 480 kts 36°
2026-05-06 14:08 -27.53492 26.94672 36970 ft 481 kts 36°
2026-05-06 14:08 -27.51095 26.97319 36718 ft 485 kts 36°
2026-05-06 14:08 -27.48675 26.99990 36320 ft 484 kts 36°
2026-05-06 14:09 -27.46282 27.02637 35916 ft 480 kts 36°
2026-05-06 14:09 -27.43911 27.05260 35503 ft 476 kts 35°
2026-05-06 14:09 -27.41552 27.07866 35092 ft 473 kts 35°
2026-05-06 14:09 -27.39207 27.10452 34663 ft 470 kts 35°
2026-05-06 14:10 -27.36873 27.13023 34258 ft 468 kts 34°
2026-05-06 14:10 -27.34585 27.15540 33821 ft 465 kts 34°
2026-05-06 14:10 -27.32282 27.18074 33344 ft 461 kts 34°
2026-05-06 14:10 -27.29994 27.20592 32960 ft 456 kts 33°
2026-05-06 14:11 -27.27732 27.23078 32494 ft 452 kts 33°
2026-05-06 14:11 -27.25496 27.25534 32150 ft 447 kts 33°
2026-05-06 14:11 -27.23278 27.27968 31763 ft 443 kts 33°
2026-05-06 14:11 -27.21082 27.30376 31386 ft 440 kts 32°
2026-05-06 14:12 -27.18852 27.32683 31019 ft 432 kts 29°
2026-05-06 14:12 -27.16583 27.34864 30637 ft 426 kts 27°
2026-05-06 14:12 -27.14309 27.36987 30260 ft 423 kts 27°
2026-05-06 14:12 -27.12071 27.39062 29834 ft 421 kts 27°
2026-05-06 14:13 -27.09828 27.41151 29408 ft 418 kts 27°
2026-05-06 14:13 -27.07605 27.43234 28989 ft 414 kts 28°
2026-05-06 14:13 -27.05400 27.45310 28585 ft 411 kts 28°
2026-05-06 14:13 -27.03224 27.47365 28195 ft 407 kts 28°
2026-05-06 14:14 -27.01067 27.49405 27824 ft 403 kts 28°
2026-05-06 14:14 -26.98935 27.51420 27441 ft 400 kts 28°
2026-05-06 14:14 -26.96815 27.53422 27066 ft 396 kts 28°
2026-05-06 14:14 -26.94710 27.55408 26693 ft 394 kts 28°
2026-05-06 14:15 -26.92647 27.57353 26297 ft 391 kts 27°
2026-05-06 14:15 -26.90573 27.59308 25952 ft 388 kts 27°
2026-05-06 14:15 -26.88514 27.61248 25597 ft 385 kts 27°
2026-05-06 14:15 -26.86469 27.63173 25231 ft 383 kts 27°
2026-05-06 14:16 -26.84439 27.65084 24934 ft 379 kts 27°
2026-05-06 14:16 -26.82447 27.66964 24777 ft 370 kts 26°
2026-05-06 14:16 -26.81126 27.68167 24508 ft 368 kts 25°
2026-05-06 14:16 -26.79102 27.69899 24185 ft 364 kts 23°
2026-05-06 14:17 -26.77080 27.71586 23832 ft 362 kts 23°
2026-05-06 14:17 -26.74403 27.73813 23333 ft 361 kts 23°
2026-05-06 14:17 -26.73044 27.74948 23081 ft 359 kts 24°
2026-05-06 14:17 -26.70408 27.77162 22620 ft 357 kts 25°
2026-05-06 14:18 -26.69097 27.78268 22392 ft 355 kts 25°
2026-05-06 14:18 -26.67143 27.79920 22240 ft 347 kts 25°
2026-05-06 14:18 -26.65234 27.81506 22079 ft 334 kts 20°
2026-05-06 14:18 -26.63201 27.82465 21660 ft 302 kts 356°
2026-05-06 14:19 -26.61256 27.82383 21415 ft 266 kts 333°
2026-05-06 14:19 -26.59729 27.81417 21083 ft 247 kts 309°
2026-05-06 14:19 -26.58676 27.79893 20787 ft 252 kts 296°
2026-05-06 14:19 -26.58230 27.77988 20460 ft 262 kts 272°
2026-05-06 14:20 -26.58685 27.75977 20146 ft 278 kts 248°
2026-05-06 14:20 -26.59994 27.74310 19838 ft 298 kts 225°
2026-05-06 14:20 -26.61823 27.73140 19558 ft 306 kts 215°
2026-05-06 14:20 -26.63790 27.72180 19247 ft 312 kts 208°
2026-05-06 14:21 -26.65951 27.71744 18942 ft 324 kts 185°
2026-05-06 14:21 -26.68143 27.72296 18646 ft 333 kts 161°
2026-05-06 14:21 -26.70044 27.73798 18337 ft 339 kts 136°
2026-05-06 14:21 -26.71300 27.76014 17991 ft 340 kts 112°
2026-05-06 14:22 -26.71710 27.78599 17639 ft 338 kts 87°
2026-05-06 14:22 -26.71269 27.81149 17314 ft 332 kts 71°
2026-05-06 14:22 -26.70601 27.83619 16946 ft 333 kts 71°
2026-05-06 14:22 -26.69923 27.86082 16615 ft 331 kts 71°
2026-05-06 14:23 -26.69240 27.88540 16231 ft 329 kts 71°
2026-05-06 14:23 -26.68567 27.90953 15847 ft 321 kts 71°
2026-05-06 14:23 -26.67911 27.93306 15460 ft 312 kts 71°
2026-05-06 14:23 -26.67278 27.95587 15082 ft 303 kts 71°
2026-05-06 14:24 -26.66663 27.97812 14710 ft 296 kts 71°
2026-05-06 14:24 -26.66063 27.99987 14343 ft 289 kts 71°
2026-05-06 14:24 -26.65477 28.02110 13979 ft 283 kts 70°
2026-05-06 14:24 -26.64911 28.04168 13596 ft 278 kts 71°
2026-05-06 14:25 -26.64343 28.06237 13191 ft 272 kts 71°
2026-05-06 14:25 -26.63805 28.08220 12783 ft 267 kts 69°
2026-05-06 14:25 -26.62951 28.09987 12348 ft 251 kts 35°
2026-05-06 14:25 -26.61511 28.10847 11994 ft 227 kts
2026-05-06 14:26 -26.60001 28.11310 11641 ft 224 kts
2026-05-06 14:26 -26.58525 28.11784 11398 ft 218 kts
2026-05-06 14:26 -26.57084 28.12240 11140 ft 212 kts
2026-05-06 14:26 -26.55676 28.12680 10857 ft 208 kts
2026-05-06 14:27 -26.54302 28.13106 10603 ft 202 kts
2026-05-06 14:27 -26.52969 28.13520 10364 ft 196 kts
2026-05-06 14:27 -26.51661 28.13924 10163 ft 194 kts
2026-05-06 14:27 -26.50367 28.14323 9935 ft 192 kts
2026-05-06 14:28 -26.49052 28.14726 9770 ft 210 kts
2026-05-06 14:28 -26.47544 28.15185 9911 ft 237 kts 10°
2026-05-06 14:28 -26.45965 28.15676 9859 ft 237 kts 10°
2026-05-06 14:28 -26.44405 28.16166 9709 ft 228 kts 10°
2026-05-06 14:29 -26.42912 28.16632 9551 ft 217 kts
2026-05-06 14:29 -26.41493 28.17072 9388 ft 206 kts
2026-05-06 14:29 -26.40139 28.17492 9234 ft 196 kts
2026-05-06 14:29 -26.38848 28.17891 9103 ft 189 kts
2026-05-06 14:30 -26.37579 28.18281 9025 ft 189 kts
2026-05-06 14:30 -26.36351 28.18662 8882 ft 181 kts
2026-05-06 14:30 -26.35158 28.19031 8827 ft 178 kts
2026-05-06 14:30 -26.33973 28.19397 8677 ft 175 kts
2026-05-06 14:31 -26.32805 28.19758 8546 ft 174 kts
2026-05-06 14:31 -26.31640 28.20118 8410 ft 173 kts
2026-05-06 14:31 -26.30485 28.20475 8280 ft 171 kts
2026-05-06 14:31 -26.29327 28.20832 8148 ft 175 kts
2026-05-06 14:32 -26.28141 28.21199 7911 ft 177 kts
2026-05-06 14:32 -26.26965 28.21565 7676 ft 174 kts
2026-05-06 14:32 -26.25810 28.21922 7435 ft 173 kts
2026-05-06 14:32 -26.24633 28.22285 7230 ft 177 kts
2026-05-06 14:33 -26.23457 28.22650 6985 ft 174 kts
2026-05-06 14:33 -26.22321 28.23003 6758 ft 169 kts
2026-05-06 14:33 -26.21191 28.23347 6589 ft 168 kts
2026-05-06 14:33 -26.20053 28.23688 6321 ft 172 kts
2026-05-06 14:34 -26.18898 28.24042 6086 ft 172 kts 11°
2026-05-06 14:34 -26.17734 28.24418 5796 ft 177 kts 10°
2026-05-06 14:34 -26.16536 28.24797 5570 ft 176 kts
2026-05-06 14:34 -26.15453 28.25126 5514 ft 137 kts 17°
2026-05-06 14:35 -26.14743 28.25353 5503 ft 75 kts 15°
2026-05-06 14:35 -26.14384 28.25463 5507 ft 39 kts 13°
2026-05-06 14:35 -26.14175 28.25468 5510 ft 28 kts 346°
2026-05-06 14:35 -26.14020 28.25433 5510 ft 9 kts 328°
2026-05-06 14:36 -26.14007 28.25374 5510 ft 8 kts 240°
2026-05-06 14:36 -26.14058 28.25352 5511 ft 8 kts 193°
2026-05-06 14:36 -26.14133 28.25330 5510 ft 16 kts 195°
2026-05-06 14:36 -26.14255 28.25293 5508 ft 19 kts 196°
2026-05-06 14:37 -26.14358 28.25261 5509 ft 13 kts 195°
2026-05-06 14:37 -26.14428 28.25199 5510 ft 16 kts 258°
2026-05-06 14:37 -26.14372 28.25098 5518 ft 16 kts 315°
2026-05-06 14:37 -26.14294 28.25014 5530 ft 17 kts 315°
2026-05-06 14:38 -26.14199 28.24911 5530 ft 19 kts 315°
2026-05-06 14:38 -26.14106 28.24813 5530 ft 19 kts 315°
2026-05-06 14:38 -26.14015 28.24713 5530 ft 18 kts 315°
2026-05-06 14:38 -26.13933 28.24617 5531 ft 17 kts 300°
2026-05-06 14:39 -26.13940 28.24495 5530 ft 16 kts 257°
2026-05-06 14:39 -26.13969 28.24369 5531 ft 17 kts 255°
2026-05-06 14:39 -26.13987 28.24240 5533 ft 17 kts 280°
2026-05-06 14:39 -26.13951 28.24093 5549 ft 21 kts 285°
2026-05-06 14:40 -26.13921 28.23972 5558 ft 12 kts 285°
2026-05-06 14:40 -26.13899 28.23887 5560 ft 11 kts 286°
2026-05-06 14:40 -26.13877 28.23802 5560 ft 13 kts 286°
2026-05-06 14:40 -26.13847 28.23686 5561 ft 16 kts 285°
2026-05-06 14:41 -26.13823 28.23588 5561 ft 12 kts 285°
2026-05-06 14:41 -26.13800 28.23497 5557 ft 14 kts 285°
2026-05-06 14:41 -26.13775 28.23395 5547 ft 11 kts 285°
2026-05-06 14:41 -26.13763 28.23314 5546 ft 13 kts 271°
2026-05-06 14:42 -26.13757 28.23229 5549 ft 8 kts 277°
2026-05-06 14:42 -26.13751 28.23170 5548 ft 7 kts 276°
2026-05-06 14:42 -26.13746 28.23120 5549 ft 5 kts 278°
2026-05-06 14:42 -26.13720 28.23103 5547 ft 5 kts 356°
2026-05-06 14:43 -26.13693 28.23106 5549 ft 3 kts
2026-05-06 14:43 -26.13683 28.23107 5547 ft 1 kts
2026-05-06 14:43 -26.13682 28.23107 5548 ft 0 kts